DW9064 Weather Reports


Display with metric or nautical units.
time (UTC)temp
F
wind
direction
speed
MPH
gust
MPH
rain 1hr
in
rain 24hr
in
rain mn
in
humidity
%
barometer
mb
20260506195102 75 170 7.0 13.0 0.00 0.00 0.00 22 1025.8
20260506194203 75 174 7.0 13.0 0.00 0.00 0.00 21 1025.9
20260506193302 75 179 8.0 12.0 0.00 0.00 0.00 21 1026.0
20260506192402 75 181 4.0 12.0 0.00 0.00 0.00 20 1026.2
20260506191502 74 172 8.0 12.0 0.00 0.00 0.00 23 1026.4
20260506190602 73 182 8.0 13.0 0.00 0.00 0.00 24 1026.7
20260506185702 72 172 7.0 12.0 0.00 0.00 0.00 24 1026.7
20260506184802 71 168 7.0 13.0 0.00 0.00 0.00 24 1026.9
20260506183902 70 171 7.0 10.0 0.00 0.00 0.00 25 1027.1
20260506183003 70 166 4.0 7.0 0.00 0.00 0.00 26 1027.3
20260506182102 69 142 2.0 8.0 0.00 0.00 0.00 26 1027.4
20260506181202 68 163 4.0 8.0 0.00 0.00 0.00 26 1027.7
20260506180302 67 162 2.0 6.0 0.00 0.00 0.00 25 1027.8
20260506175402 67 124 1.0 6.0 0.00 0.00 0.00 28 1028.0
20260506174502 67 117 3.0 7.0 0.00 0.00 0.00 29 1028.0
20260506173602 66 108 3.0 8.0 0.00 0.00 0.00 29 1028.1
20260506171802 65 113 4.0 9.0 0.00 0.00 0.00 32 1028.6
20260506170902 65 106 2.0 9.0 0.00 0.00 0.00 32 1028.8
20260506165102 61 127 4.0 7.0 0.00 0.00 0.00 41 1028.9
20260506164202 60 128 3.0 8.0 0.00 0.00 0.00 42 1029.0
20260506163302 60 107 4.0 8.0 0.00 0.00 0.00 41 1029.2
20260506161502 59 94 2.0 8.0 0.00 0.00 0.00 45 1029.5
20260506160602 58 108 3.0 8.0 0.00 0.00 0.00 44 1029.5
20260506154802 56 81 2.0 4.0 0.00 0.00 0.00 50 1029.8
20260506153902 57 96 3.0 8.0 0.00 0.00 0.00 51 1029.9
20260506153002 56 92 2.0 7.0 0.00 0.00 0.00 52 1029.9
20260506152102 55 87 2.0 5.0 0.00 0.00 0.00 58 1030.0
20260506151202 53 93 3.0 8.0 0.00 0.00 0.00 58 1029.9
20260506150304 53 87 2.0 8.0 0.00 0.00 0.00 61 1029.9
20260506144502 51 86 2.0 7.0 0.00 0.00 0.00 63 1030.0
20260506143602 51 80 4.0 7.0 0.00 0.00 0.00 64 1030.1
20260506142702 51 82 4.0 8.0 0.00 0.00 0.00 65 1030.0
20260506140902 49 84 2.0 4.0 0.00 0.00 0.00 71 1030.2
20260506140001 48 74 1.0 4.0 0.00 0.00 0.00 74 1030.2
20260506135102 46 67 2.0 4.0 0.00 0.00 0.00 76 1030.0
20260506134202 44 63 1.0 4.0 0.00 0.00 0.00 78 1030.0
20260506132402 42 46 2.0 5.0 0.00 0.00 0.00 79 1029.9
20260506131502 42 357 2.0 4.0 0.00 0.00 0.00 78 1029.7
20260506130601 42 349 2.0 5.0 0.00 0.00 0.00 77 1029.8
20260506125702 42 5 2.0 5.0 0.00 0.00 0.00 77 1029.7
20260506124801 41 356 3.0 6.0 0.00 0.00 0.00 78 1029.5
20260506123002 41 344 3.0 6.0 0.00 0.00 0.00 77 1029.4
20260506121201 41 351 4.0 8.0 0.00 0.00 0.00 75 1029.3
20260506120301 42 344 4.0 7.0 0.00 0.00 0.00 75 1029.2
20260506115401 42 7 4.0 7.0 0.00 0.00 0.00 75 1029.3
20260506113601 43 358 4.0 5.0 0.00 0.00 0.00 74 1029.1
20260506112701 43 8 2.0 6.0 0.00 0.00 0.00 73 1029.2
20260506111801 43 345 4.0 7.0 0.00 0.00 0.00 73 1029.1
20260506110902 43 357 4.0 7.0 0.00 0.00 0.00 73 1029.0
20260506110001 43 356 4.0 7.0 0.00 0.00 0.00 72 1029.0
20260506105101 44 347 4.0 8.0 0.00 0.00 0.00 72 1028.8
20260506104201 44 356 4.0 6.0 0.00 0.00 0.00 71 1028.8
20260506103301 44 357 3.0 6.0 0.00 0.00 0.00 70 1028.7
20260506102401 44 3 2.0 6.0 0.00 0.00 0.00 71 1028.6
20260506101501 44 356 4.0 8.0 0.00 0.00 0.00 72 1028.6
20260506100601 44 348 5.0 8.0 0.00 0.00 0.00 72 1028.5
20260506095701 44 340 5.0 8.0 0.00 0.00 0.00 73 1028.4
20260506094801 44 335 4.0 7.0 0.00 0.00 0.00 73 1028.4
20260506093001 45 344 4.0 7.0 0.00 0.00 0.00 70 1028.4
20260506092101 45 352 5.0 8.0 0.00 0.00 0.00 70 1028.4
20260506090301 46 346 4.0 8.0 0.00 0.00 0.00 70 1028.2
20260506084501 47 344 4.0 8.0 0.00 0.00 0.00 69 1028.2
20260506083601 46 339 4.0 8.0 0.00 0.00 0.00 70 1028.2
20260506082701 46 331 5.0 8.0 0.00 0.00 0.00 70 1028.1
20260506081801 47 331 4.0 8.0 0.00 0.00 0.00 70 1028.1
20260506080901 47 337 3.0 8.0 0.00 0.00 0.00 71 1027.8
20260506073301 47 316 5.0 8.0 0.00 0.00 0.00 76 1027.7
20260506072401 47 317 6.0 8.0 0.00 0.00 0.00 76 1027.6
20260506071501 47 325 5.0 7.0 0.00 0.00 0.00 75 1027.4
20260506070601 48 332 5.0 8.0 0.00 0.00 0.00 74 1027.4
20260506062101 49 321 6.0 9.0 0.00 0.00 0.00 77 1026.9
20260506061201 49 318 8.0 9.0 0.00 0.00 0.00 77 1026.9
20260506060301 49 324 5.0 8.0 0.00 0.00 0.00 77 1026.7
20260506050901 51 318 7.0 9.0 0.00 0.00 0.00 69 1026.2
20260506045101 51 325 8.0 10.0 0.00 0.00 0.00 71 1025.9
20260506044201 51 314 7.0 9.0 0.00 0.00 0.00 71 1025.9
20260506043301 52 314 7.0 9.0 0.00 0.00 0.00 69 1025.7
20260506042401 52 318 8.0 9.0 0.00 0.00 0.00 68 1025.6
20260506041500 52 315 7.0 9.0 0.00 0.00 0.00 68 1025.5
20260506040600 53 316 8.0 10.0 0.00 0.00 0.00 65 1025.4
20260506035700 53 314 8.0 9.0 0.00 0.00 0.00 67 1025.2
20260506034800 54 318 8.0 11.0 0.00 0.00 0.00 65 1025.0
20260506033900 54 314 8.0 10.0 0.00 0.00 0.00 64 1025.0
20260506033000 55 314 8.0 11.0 0.00 0.00 0.00 63 1024.9
20260506031200 56 316 8.0 10.0 0.00 0.00 0.00 63 1024.7
20260506030301 57 316 8.0 10.0 0.00 0.00 0.00 60 1024.5
20260506024500 58 320 9.0 11.0 0.00 0.00 0.00 58 1024.2
20260506023600 58 315 8.0 11.0 0.00 0.00 0.00 57 1024.2
20260506022700 59 316 9.0 11.0 0.00 0.00 0.00 56 1024.2
20260506021800 60 315 9.0 11.0 0.00 0.00 0.00 54 1024.0
20260506015100 60 316 9.0 11.0 0.00 0.00 0.00 55 1024.0
20260506014200 61 318 9.0 11.0 0.00 0.00 0.00 53 1023.9
20260506013300 62 319 9.0 11.0 0.00 0.00 0.00 53 1023.9
20260506012400 62 318 9.0 10.0 0.00 0.00 0.00 52 1023.9
20260506011500 63 314 8.0 10.0 0.00 0.00 0.00 50 1023.9
20260506010600 64 316 8.0 10.0 0.00 0.00 0.00 45 1023.9
20260506005700 66 316 7.0 8.0 0.00 0.00 0.00 41 1024.1
20260506004800 70 314 6.0 8.0 0.00 0.00 0.00 35 1024.1
20260506003900 73 326 5.0 7.0 0.00 0.00 0.00 30 1024.0
20260506003000 77 334 4.0 6.0 0.00 0.00 0.00 25 1024.1
20260506002100 80 358 2.0 5.0 0.00 0.00 0.00 20 1024.2
20260506001200 81 359 2.0 4.0 0.00 0.00 0.00 15 1024.4
20260506000302 81 57 1.0 4.0 0.00 0.00 0.00 10 1024.4
20260505235400 80 115 2.0 4.0 0.00 0.00 0.00 10 1024.6
20260505234500 81 109 2.0 5.0 0.00 0.00 0.00 10 1024.6
20260505233600 81 130 1.0 4.0 0.00 0.00 0.00 10 1024.8
20260505232700 81 165 2.0 7.0 0.00 0.00 0.00 10 1024.9
20260505231800 81 122 2.0 6.0 0.00 0.00 0.00 10 1024.9
20260505230000 82 74 2.0 7.0 0.00 0.00 0.00 10 1025.1
20260505225100 81 72 3.0 7.0 0.00 0.00 0.00 10 1025.1
20260505224200 80 132 1.0 6.0 0.00 0.00 0.00 10 1025.4
20260505223300 80 148 4.0 7.0 0.00 0.00 0.00 10 1025.5
20260505221500 80 116 3.0 7.0 0.00 0.00 0.00 10 1025.6
20260505220600 79 163 2.0 6.0 0.00 0.00 0.00 11 1025.8
20260505215700 78 184 2.0 8.0 0.00 0.00 0.00 10 1025.9
20260505214800 78 181 4.0 10.0 0.00 0.00 0.00 10 1026.0
20260505213900 79 128 4.0 5.0 0.00 0.00 0.00 13 1026.2
20260505213000 78 183 2.0 8.0 0.00 0.00 0.00 11 1026.3
20260505212100 78 220 3.0 9.0 0.00 0.00 0.00 10 1026.5
20260505211200 78 194 5.0 12.0 0.00 0.00 0.00 12 1026.6
20260505210300 78 184 7.0 12.0 0.00 0.00 0.00 11 1026.8
20260505205400 78 129 1.0 8.0 0.00 0.00 0.00 11 1026.9
20260505203601 77 119 4.0 11.0 0.00 0.00 0.00 13 1027.2
20260505202700 78 140 4.0 8.0 0.00 0.00 0.00 13 1027.2
20260505201800 78 305 3.0 7.0 0.00 0.00 0.00 12 1027.2
20260505200000 77 98 2.0 8.0 0.00 0.00 0.00 17 1027.5